Hourly Weather Roundup
Issued by NWS Central Illinois

Home | Current Version | Previous Version | Text Only | Print | Product List | Glossary On
Versions: 1 2 3 4 5 6 7 8 9 10 11 12 13 14 15 16 17 18 19 20 21 22 23 24 25 26 27 28 29 30 31 32 33 34 35 36 37 38 39 40 41 42 43 44 45 46 47 48 49 50
000
NZUS43 KILX 280010
HWRILX

Area Weather Roundup
National Weather Service Lincoln IL
700 PM CDT SAT MAY 27 2017

NOTE:  "FAIR" indicates few or no clouds below 12,000 feet, with
       no sigificant weather and/or obstructions to visibility.


CITY           SKY/WX    TMP DP  RH WIND       PRES   REMARKS
Bloomington    CLOUDY    74  61  63 SE8       29.83F
6HR MIN TEMP:  74; 6HR MAX TEMP:  80;

Champaign      CLOUDY    72  63  73 E6        29.84F
6HR MIN TEMP:  68; 6HR MAX TEMP:  75;

Danville       MOSUNNY   72  64  74 CALM      29.83F
6HR MIN TEMP:  65; 6HR MAX TEMP:  73;

Decatur        CLOUDY    75  63  66 SE5       29.84F
6HR MIN TEMP:  71; 6HR MAX TEMP:  78;

Effingham      CLOUDY    76  68  76 W6        29.86R
6HR MIN TEMP:  75; 6HR MAX TEMP:  80;

Flora          CLOUDY    76  67  73 W8        29.86R
6HR MIN TEMP:  74; 6HR MAX TEMP:  85; 6HR PCP:  0.01;

Galesburg      CLOUDY    72  64  74 E3        29.78F
6HR MIN TEMP:  72; 6HR MAX TEMP:  75;

Jacksonville   CLOUDY    72  64  75 SE21G32   29.68F
6HR MIN TEMP:  71; 6HR MAX TEMP:  78;

Lacon          CLOUDY    74  64  71 CALM      29.81F
6HR MIN TEMP:  71; 6HR MAX TEMP:  77;

Lawrenceville  CLOUDY    78  66  66 NE6       29.82R HX  80
6HR MIN TEMP:  78; 6HR MAX TEMP:  83;

Litchfield     CLOUDY    66  62  86 W18       29.88F
6HR MIN TEMP:  66; 6HR MAX TEMP:  77; 6HR PCP:  0.03;

$$


CITY           SKY/WX    TMP DP  RH WIND       PRES   REMARKS
Lincoln        PTSUNNY   78  62  57 S8        29.81F HX  80
6HR MIN TEMP:  77; 6HR MAX TEMP:  82;

Macomb         CLOUDY    73  65  78 NE6       29.81S
6HR MIN TEMP:  71; 6HR MAX TEMP:  76;

Mattoon        CLOUDY    74  67  78 E3        29.82F
6HR MIN TEMP:  74; 6HR MAX TEMP:  78;

Mt Carmel AP   CLOUDY    75  64  68 CALM      29.83R
6HR MIN TEMP:  75; 6HR MAX TEMP:  84;

Olney-Noble AP CLOUDY    73  68  82 W3        29.84R
Paris AP       CLOUDY    73  65  77 CALM      29.85S
6HR MIN TEMP:  69; 6HR MAX TEMP:  75;

Peoria         CLOUDY    75  64  68 E8        29.80F
6HR MIN TEMP:  73; 6HR MAX TEMP:  78;

Pontiac        MOSUNNY   76  67  73 E3        29.84F
6HR MIN TEMP:  73; 6HR MAX TEMP:  78;

Rantoul        PTSUNNY   75  66  74 E3        29.85F
6HR MIN TEMP:  70; 6HR MAX TEMP:  77;

Robinson       CLOUDY    76  66  72 N6        29.82F
6HR MIN TEMP:  75; 6HR MAX TEMP:  80;

Springfield    CLOUDY    78  63  59 S12       29.81F HX  80
6HR MIN TEMP:  78; 6HR MAX TEMP:  82;

Taylorville    PTSUNNY   76  64  66 SW8       29.85S
6HR MIN TEMP:  73; 6HR MAX TEMP:  78;

$$

...REGIONAL REPORTS...


CITY           SKY/WX    TMP DP  RH WIND       PRES   REMARKS
Chicago O`Hare PTSUNNY   70  54  56 E9        29.85S
Kankakee       CLOUDY    77  59  54 CALM      29.85S
Moline         CLOUDY    73  62  68 N5        29.82S
Mount Sterling CLOUDY    73  63  72 NE6       29.76R
Mount Vernon   LGT RAIN  71  65  81 W12G28    29.93R
Pittsfield     CLOUDY    70  64  82 SE7       29.71R
Quincy         CLOUDY    73  63  70 N6        29.76R
Rockford       CLOUDY    75  60  59 CALM      29.86R
$$


CITY           SKY/WX    TMP DP  RH WIND       PRES   REMARKS
Burlington     CLOUDY    73  64  73 CALM      29.79F
Cedar Rapids   CLOUDY    62  62 100 N13       29.85F
Des Moines     PTSUNNY   67  57  70 NE10      29.87S
Kirksville     CLOUDY    76  65  68 NE6       29.81F
Ottumwa        CLOUDY    67  62  84 N14       29.83S
St Louis       LGT RAIN  68  61  78 E21       29.74F
$$


CITY           SKY/WX    TMP DP  RH WIND       PRES   REMARKS
Terre Haute    CLOUDY    76  64  66 N7        29.84R
Evansville     CLOUDY    77  60  55 NW6       29.84R
Indianapolis   PTSUNNY   75  62  64 N9        29.83F
Lafayette      CLOUDY    70  63  78 NW7       29.86R
Madison        CLOUDY    72  56  57 CALM      29.85R
Milwaukee      PTSUNNY   66  53  63 SE9       29.86F
$$






USA.gov is the U.S. government's official web portal to all federal, state and local government web resources and services.